Regional Weather Roundup
Issued by NWS Mobile, AL

Home | Current Version | Previous Version | Text Only | Print | Product List | Glossary On
Versions: 1 2 3 4 5 6 7 8 9 10 11 12 13 14 15 16 17 18 19 20 21 22 23 24 25 26 27
000
ASUS44 KMOB 240610
RWRMOB
REGIONAL WEATHER ROUNDUP
NATIONAL WEATHER SERVICE MOBILE AL
100 AM CDT FRI OCT 24 2014

NOTE: "FAIR" INDICATES FEW OR NO CLOUDS BELOW 12,000 FEET WITH NO
      SIGNIFICANT WEATHER AND/OR OBSTRUCTIONS TO VISIBILITY.

  * THESE STATIONS ARE PART OF THE UNIVERSITY OF SOUTH ALABAMA
    MESONET AND ARE NOT UNDER NWS OR FAA QUALITY CONTROL.

ALZ061>064-240700-
COASTAL ALABAMA

CITY           SKY/WX    TMP DP  RH WIND       PRES   REMARKS
MOBILE REG APT PTCLDY    57  46  66 N7        30.06F
6HR MIN TEMP:  56; 6HR MAX TEMP:  61;

BROOKLEY FIELD MOCLDY    57  49  74 N7        30.07F
6HR MIN TEMP:  56; 6HR MAX TEMP:  63;

USA CAMPUS*      N/A     55  46  71 CALM      30.07F
DOG RIVER*     NOT AVBL


CITY           SKY/WX    TMP DP  RH WIND       PRES   REMARKS
MOUNT VERNON*    N/A     48  46  93 CALM      30.07F
SARALAND*      NOT AVBL
BAY MINETTE*   NOT AVBL
LOXLEY*          N/A     55  48  76 N6        30.07S
ROBERTSDALE*     N/A     57  48  72 VRB2      30.06S
FAIRHOPE*        N/A     59  48  67 VRB5      30.05S
ELBERTA*         N/A     57  48  72 VRB2      30.05F
FOLEY*           N/A     54  48  82 NW3       30.03R
GRAND BAY*       N/A     54  52  94 CALM      30.04F
DAUPHIN ISLND* NOT AVBL
BON SCOUR NWR* NOT AVBL
GULF SHORES    CLOUDY    58  48  68 CALM      30.05S

$$

ALZ051>060-240700-
INTERIOR SOUTHWEST AND SOUTH CENTRAL ALABAMA

CITY           SKY/WX    TMP DP  RH WIND       PRES   REMARKS
GREENVILLE     CLOUDY    52  47  83 CALM      30.06F
6HR MIN TEMP:  52; 6HR MAX TEMP:  59;

EVERGREEN      CLOUDY    57  47  69 N7        30.07S
6HR MIN TEMP:  54; 6HR MAX TEMP:  61;

CASTLEBERRY*   NOT AVBL
ATMORE*          N/A     55  48  76 N3        30.07F
DIXIE*           N/A     54  50  87 CALM      30.03F
ANDALUSIA/OPP  CLOUDY    59  48  67 CALM      30.05S
6HR MIN TEMP:  57; 6HR MAX TEMP:  64;

ANDALUSIA*       N/A     57  48  72 N5        30.04F
FLORALA APT    CLOUDY    58  46  64 CALM      30.06S
6HR MIN TEMP:  53; 6HR MAX TEMP:  60;

FLORALA*         N/A     54  48  82 NW3       30.03R

$$

FLZ001>006-240700-
WESTERN FLORIDA PANHANDLE

CITY           SKY/WX    TMP DP  RH WIND       PRES   REMARKS
PENSACOLA      CLOUDY    61  46  57 N6        30.04F
6HR MIN TEMP:  60; 6HR MAX TEMP:  65;

NAS PENSACOLA  CLOUDY    58  49  72 N5        30.04F
6HR MIN TEMP:  54; 6HR MAX TEMP:  60;

MILTON         CLOUDY    57  47  69 N5        30.05F
6HR MIN TEMP:  54; 6HR MAX TEMP:  60;

WHTNG S FIELD  CLOUDY    58  48  69 N7        30.05F
6HR MIN TEMP:  53; 6HR MAX TEMP:  66;



CITY           SKY/WX    TMP DP  RH WIND       PRES   REMARKS
WALNUT HILL*   NOT AVBL
JAY*             N/A     57  46  67 NW2       30.07R
DUKE FIELD     CLOUDY    52  48  85 NW2       30.04S
CRESTVIEW      CLOUDY    52  49  89 N3        30.06S
6HR MIN TEMP:  50; 6HR MAX TEMP:  56;

VALPARAISO     MOCLDY    57  46  68 N6        30.04S
6HR MIN TEMP:  56; 6HR MAX TEMP:  66;

DESTIN         CLOUDY    63  51  65 N3        30.04S
6HR MIN TEMP:  60; 6HR MAX TEMP:  67;


$$

MSZ076-079-240700-
INTERIOR SOUTHEAST MISSISSIPPI

CITY           SKY/WX    TMP DP  RH WIND       PRES   REMARKS
LEAKESVILLE*   NOT AVBL
AGRICOLA*      NOT AVBL

$$

MARINE OBSERVATIONS

STATION/POSITION TIME  TEMP    WIND        PRES    WAVE
                       AIR SEA DIR/SP/G            HT/PER
                 (UTC) (F)     (DEG/KT/KT) (MB)    (FT/S)
PASCAGOULA       0600   61     350/  6/  7 1017.4F
PETIT BOIS ISLND 0600   67      20/ 13/ 15 1017.6F
GRAND BAY        0500   62     350/  4     1019.0S
KATRINA CUT      0500   66      30/ 12     1018.0S
CEDAR POINT      0500   63      10/  7     1018.0S
E DAUPHIN ISLAND 0600   68      30/ 12/ 13 1017.7F
MIDDLE BAY LIGHT 0500   67      20/ 11     1017.6R
USCG MOBILE BAY  0600   61 74  350/  4/  5 1016.7S
STATE DOCKS      0600   62 75              1017.9R
MEAHER PARK      0500   61      10/  3     1018.0F
WEEKS BAY        0500   57                   N/A
FORT MORGAN      0600   68      50/ 12/ 14 1017.1S
12 S ORANGE BCH  0600   70 78   20/ 16/ 17 1016.8F   2/ 6
PENSACOLA BAY    0600   64 74  360/  6/  8 1017.6F
64 S DAUPHIN ISL 0500   72 78   30/ 10/ 12 1017.6    3/ 6
67 S FORT MORGAN 0500   71                 1016.9R

$$

SELECTED LOCATIONS ACROSS THE REGION

CITY           SKY/WX    TMP DP  RH WIND       PRES   REMARKS
NEW ORLEANS    PTCLDY    64  50  60 NE9       30.07S
GULFPORT       PTCLDY    59  46  62 N5        30.06F
PASCAGOULA AP  PTCLDY    51  49  92 CALM      30.06F
PASCAGOULA*      N/A     59  46  63 CALM      30.05F
HATTIESBURG    PTCLDY    54  49  83 CALM      30.10S
LAUREL         PTCLDY    52  45  76 N5        30.10F
MERIDIAN       PTCLDY    49  46  90 CALM      30.10F
JACKSON        CLEAR     48  46  93 CALM      30.11S
MONTGOMERY     MOCLDY    50  46  86 CALM      30.06F
TROY           CLOUDY    50  47  89 CALM      30.06S
KINSTON*       NOT AVBL
GENEVA*          N/A     54  50  87 CALM      30.06F
ASHFORD*         N/A     57  48  72 N5        30.04F
DOTHAN         MOCLDY    53  48  83 N3        30.07S
PANAMA CITY    MOCLDY    53  48  83 CALM      30.02F

$$




USA.gov is the U.S. government's official web portal to all federal, state and local government web resources and services.